User: anonymous   Login
Location: Gro�sch�nbrunn
(49.5760°N, 11.8868°E)
Time: 17:51:26
(UTC+00:00)
Language:

Resurs 01 Rocket - Orbit

View from above orbital plane
View from above orbital plane
View from above satellite
View from above satellite

Ground track
Ground track

The orbit data is extracted from the following two-line orbital elements,

1 23343U 94074B   20338.14805907  .00000075  00000-0  18038-4 0  9995
2 23343  97.9770  29.4501 0006231 338.3195  77.6254 14.76849704403526
Epoch (UTC): 03 December 2020 03:33:12
Eccentricity: 0.0006231
inclination: 97.9770°
perigee height: 635 km
apogee height: 643 km
right ascension of ascending node: 29.4501°
argument of perigee: 338.3195°
revolutions per day: 14.76849704
mean anomaly at epoch: 77.6254°
orbit number at epoch: 40352

The dashed part of the orbit path shows where the satellite is in the earth's shadow,  

DLR